Time,TemperatureF,DewpointF,PressureIn,WindDirection,WindDirectionDegrees,WindSpeedMPH,WindSpeedGustMPH,Humidity,HourlyPrecipIn,Conditions,Clouds,dailyrainin,SoftwareType,DateUTC
2013-01-11 00:10:00,31.5,27.0,30.42,SSE,148,1.0,-999.0,84,-99.99,,,0.00,weatherlink.com 1.10,2013-01-11 05:10:00,
2013-01-11 00:25:00,31.7,27.0,30.40,East,96,3.0,-999.0,84,-99.99,,,0.00,weatherlink.com 1.10,2013-01-11 05:25:00,
2013-01-11 00:40:00,31.9,28.0,30.40,ESE,111,2.0,-999.0,84,-99.99,,,0.00,weatherlink.com 1.10,2013-01-11 05:40:00,
2013-01-11 00:55:00,32.1,28.0,30.38,ESE,105,1.0,-999.0,83,-99.99,,,0.00,weatherlink.com 1.10,2013-01-11 05:55:00,
2013-01-11 01:10:00,32.2,28.0,30.38,SE,126,4.0,-999.0,83,-99.99,,,0.00,weatherlink.com 1.10,2013-01-11 06:10:00,
2013-01-11 01:25:00,32.5,28.0,30.36,ESE,119,4.0,-999.0,82,-99.99,,,0.00,weatherlink.com 1.10,2013-01-11 06:25:00,
2013-01-11 01:40:00,32.9,28.0,30.36,SE,138,1.0,-999.0,81,-99.99,,,0.00,weatherlink.com 1.10,2013-01-11 06:40:00,
2013-01-11 01:55:00,33.0,27.0,30.35,SE,140,2.0,-999.0,80,-99.99,,,0.00,weatherlink.com 1.10,2013-01-11 06:55:00,
2013-01-11 02:10:00,33.4,28.0,30.34,SE,137,1.0,-999.0,80,-99.99,,,0.00,weatherlink.com 1.10,2013-01-11 07:10:00,
2013-01-11 02:25:00,33.5,28.0,30.34,SE,126,2.0,-999.0,79,-99.99,,,0.00,weatherlink.com 1.10,2013-01-11 07:25:00,
2013-01-11 02:40:00,34.1,28.0,30.32,SE,137,3.0,-999.0,78,-99.99,,,0.00,weatherlink.com 1.10,2013-01-11 07:40:00,
2013-01-11 02:55:00,34.6,28.0,30.31,SE,133,4.0,-999.0,77,-99.99,,,0.00,weatherlink.com 1.10,2013-01-11 07:55:00,
2013-01-11 03:10:00,35.2,28.0,30.30,SE,141,6.0,-999.0,75,-99.99,,,0.00,weatherlink.com 1.10,2013-01-11 08:10:00,
2013-01-11 03:25:00,35.3,28.0,30.29,SE,136,9.0,-999.0,74,-99.99,,,0.00,weatherlink.com 1.10,2013-01-11 08:25:00,
2013-01-11 03:40:00,34.9,28.0,30.26,SE,132,3.0,-999.0,75,-99.99,,,0.00,weatherlink.com 1.10,2013-01-11 08:40:00,
2013-01-11 03:55:00,34.7,28.0,30.27,SSE,152,0.0,-999.0,76,-99.99,,,0.00,weatherlink.com 1.10,2013-01-11 08:55:00,
2013-01-11 04:10:00,35.0,28.0,30.26,SSE,151,2.0,-999.0,75,-99.99,,,0.00,weatherlink.com 1.10,2013-01-11 09:10:00,
2013-01-11 04:25:00,35.2,28.0,30.24,SE,126,0.0,-999.0,75,-99.99,,,0.00,weatherlink.com 1.10,2013-01-11 09:25:00,
2013-01-11 04:40:00,35.4,28.0,30.24,SSW,194,3.0,-999.0,74,-99.99,,,0.00,weatherlink.com 1.10,2013-01-11 09:40:00,
2013-01-11 04:55:00,35.9,28.0,30.24,SSE,156,1.0,-999.0,73,-99.99,,,0.00,weatherlink.com 1.10,2013-01-11 09:55:00,
2013-01-11 05:10:00,35.5,29.0,30.23,SE,142,1.0,-999.0,77,-99.99,,,0.00,weatherlink.com 1.10,2013-01-11 10:10:00,
2013-01-11 05:25:00,36.1,29.0,30.22,ESE,123,1.0,-999.0,74,-99.99,,,0.00,weatherlink.com 1.10,2013-01-11 10:25:00,
2013-01-11 05:40:00,36.1,29.0,30.20,SE,145,3.0,-999.0,74,-99.99,,,0.00,weatherlink.com 1.10,2013-01-11 10:40:00,
2013-01-11 05:55:00,37.4,28.0,30.19,ESE,103,1.0,-999.0,69,-99.99,,,0.00,weatherlink.com 1.10,2013-01-11 10:55:00,
2013-01-11 06:10:00,37.4,27.0,30.18,SE,129,2.0,-999.0,67,-99.99,,,0.00,weatherlink.com 1.10,2013-01-11 11:10:00,
2013-01-11 06:25:00,37.4,28.0,30.18,SE,133,3.0,-999.0,69,-99.99,,,0.00,weatherlink.com 1.10,2013-01-11 11:25:00,
2013-01-11 06:40:00,37.9,27.0,30.17,SE,130,1.0,-999.0,66,-99.99,,,0.00,weatherlink.com 1.10,2013-01-11 11:40:00,
2013-01-11 06:55:00,38.3,28.0,30.16,SE,139,3.0,-999.0,66,-99.99,,,0.00,weatherlink.com 1.10,2013-01-11 11:55:00,
2013-01-11 07:10:00,38.7,27.0,30.15,SE,130,5.0,-999.0,64,-99.99,,,0.00,weatherlink.com 1.10,2013-01-11 12:10:00,
2013-01-11 07:25:00,39.0,28.0,30.14,SSW,198,0.0,-999.0,65,-99.99,,,0.00,weatherlink.com 1.10,2013-01-11 12:25:00,
2013-01-11 07:40:00,40.3,30.0,30.14,SSE,161,2.0,-999.0,66,-99.99,,,0.00,weatherlink.com 1.10,2013-01-11 12:40:00,
2013-01-11 07:55:00,41.8,31.0,30.13,SSE,163,0.0,-999.0,66,-99.99,,,0.00,weatherlink.com 1.10,2013-01-11 12:55:00,
2013-01-11 08:10:00,42.0,32.0,30.13,South,171,6.0,-999.0,68,-99.99,,,0.00,weatherlink.com 1.10,2013-01-11 13:10:00,
2013-01-11 08:25:00,42.0,32.0,30.13,SSE,162,2.0,-999.0,68,-99.99,,,0.00,weatherlink.com 1.10,2013-01-11 13:25:00,
2013-01-11 08:40:00,41.6,32.0,30.13,South,172,4.0,-999.0,68,-99.99,,,0.00,weatherlink.com 1.10,2013-01-11 13:40:00,
2013-01-11 08:55:00,41.1,33.0,30.14,SSW,211,7.0,-999.0,73,-99.99,,,0.00,weatherlink.com 1.10,2013-01-11 13:55:00,
2013-01-11 09:10:00,41.1,33.0,30.12,South,177,4.0,-999.0,72,-99.99,,,0.00,weatherlink.com 1.10,2013-01-11 14:10:00,
2013-01-11 09:25:00,40.9,33.0,30.11,South,170,4.0,-999.0,73,-99.99,,,0.00,weatherlink.com 1.10,2013-01-11 14:25:00,
2013-01-11 09:40:00,41.7,33.0,30.11,SSE,156,2.0,-999.0,70,-99.99,,,0.00,weatherlink.com 1.10,2013-01-11 14:40:00,
2013-01-11 09:55:00,41.1,33.0,30.11,SSE,154,4.0,-999.0,72,-99.99,,,0.00,weatherlink.com 1.10,2013-01-11 14:55:00,
2013-01-11 10:10:00,40.1,32.0,30.11,SSE,152,5.0,-999.0,73,-99.99,,,0.00,weatherlink.com 1.10,2013-01-11 15:10:00,
2013-01-11 10:25:00,39.9,33.0,30.09,ESE,123,5.0,-999.0,75,-99.99,,,0.00,weatherlink.com 1.10,2013-01-11 15:25:00,
2013-01-11 10:40:00,40.9,33.0,30.09,South,169,3.0,-999.0,72,-99.99,,,0.00,weatherlink.com 1.10,2013-01-11 15:40:00,
2013-01-11 10:55:00,41.5,33.0,30.07,SE,137,5.0,-999.0,71,-99.99,,,0.00,weatherlink.com 1.10,2013-01-11 15:55:00,
2013-01-11 11:10:00,42.4,33.0,30.05,ESE,123,3.0,-999.0,69,-99.99,,,0.00,weatherlink.com 1.10,2013-01-11 16:10:00,
2013-01-11 11:25:00,42.6,33.0,30.04,South,188,12.0,-999.0,70,-99.99,,,0.00,weatherlink.com 1.10,2013-01-11 16:25:00,
2013-01-11 11:40:00,42.7,34.0,30.02,SE,142,3.0,-999.0,71,-99.99,,,0.00,weatherlink.com 1.10,2013-01-11 16:40:00,
2013-01-11 11:55:00,42.6,35.0,29.99,ESE,114,6.0,-999.0,75,-99.99,,,0.00,weatherlink.com 1.10,2013-01-11 16:55:00,
2013-01-11 12:10:00,42.4,36.0,29.99,SSE,153,2.0,-999.0,77,-99.99,,,0.00,weatherlink.com 1.10,2013-01-11 17:10:00,
2013-01-11 12:25:00,42.5,36.0,29.99,SSE,153,4.0,-999.0,78,-99.99,,,0.00,weatherlink.com 1.10,2013-01-11 17:25:00,
2013-01-11 12:40:00,42.7,36.0,29.98,South,180,6.0,-999.0,77,-99.99,,,0.00,weatherlink.com 1.10,2013-01-11 17:40:00,
2013-01-11 12:55:00,43.1,36.0,29.96,South,186,2.0,-999.0,76,-99.99,,,0.00,weatherlink.com 1.10,2013-01-11 17:55:00,
2013-01-11 13:10:00,43.3,36.0,29.96,ESE,117,3.0,-999.0,75,-99.99,,,0.00,weatherlink.com 1.10,2013-01-11 18:10:00,
2013-01-11 13:25:00,43.6,36.0,29.96,SSE,161,2.0,-999.0,75,-99.99,,,0.00,weatherlink.com 1.10,2013-01-11 18:25:00,
2013-01-11 13:40:00,42.9,36.0,29.95,SSE,156,3.0,-999.0,78,-99.99,,,0.00,weatherlink.com 1.10,2013-01-11 18:40:00,
2013-01-11 13:55:00,42.1,37.0,29.95,South,188,13.0,-999.0,82,-99.99,,,0.00,weatherlink.com 1.10,2013-01-11 18:55:00,
2013-01-11 14:10:00,41.2,38.0,29.95,South,182,3.0,-999.0,87,-99.99,,,0.00,weatherlink.com 1.10,2013-01-11 19:10:00,
2013-01-11 14:25:00,41.5,38.0,29.94,South,185,4.0,-999.0,86,-99.99,,,0.00,weatherlink.com 1.10,2013-01-11 19:25:00,
2013-01-11 14:40:00,41.5,38.0,29.94,SSW,201,5.0,-999.0,86,-99.99,,,0.00,weatherlink.com 1.10,2013-01-11 19:40:00,
2013-01-11 14:55:00,41.4,38.0,29.93,South,184,7.0,-999.0,87,-99.99,,,0.01,weatherlink.com 1.10,2013-01-11 19:55:00,
2013-01-11 15:10:00,41.2,38.0,29.93,South,178,6.0,-999.0,88,-99.99,,,0.01,weatherlink.com 1.10,2013-01-11 20:10:00,
2013-01-11 15:25:00,40.9,38.0,29.92,SSE,158,11.0,-999.0,90,-99.99,,,0.02,weatherlink.com 1.10,2013-01-11 20:25:00,
2013-01-11 15:40:00,40.8,38.0,29.90,SSE,168,2.0,-999.0,90,-99.99,,,0.02,weatherlink.com 1.10,2013-01-11 20:40:00,
2013-01-11 15:55:00,40.8,38.0,29.91,South,175,5.0,-999.0,90,-99.99,,,0.02,weatherlink.com 1.10,2013-01-11 20:55:00,
2013-01-11 16:10:00,40.9,39.0,29.92,South,185,5.0,-999.0,91,-99.99,,,0.02,weatherlink.com 1.10,2013-01-11 21:10:00,
2013-01-11 16:25:00,41.1,38.0,29.92,SSW,202,5.0,-999.0,90,-99.99,,,0.02,weatherlink.com 1.10,2013-01-11 21:25:00,
2013-01-11 16:40:00,41.6,39.0,29.93,South,186,0.0,-999.0,89,-99.99,,,0.02,weatherlink.com 1.10,2013-01-11 21:40:00,
2013-01-11 16:55:00,41.8,39.0,29.93,SSW,198,5.0,-999.0,88,-99.99,,,0.02,weatherlink.com 1.10,2013-01-11 21:55:00,
2013-01-11 17:10:00,41.9,39.0,29.94,SSW,195,3.0,-999.0,88,-99.99,,,0.02,weatherlink.com 1.10,2013-01-11 22:10:00,
2013-01-11 17:25:00,42.1,39.0,29.94,SSE,167,2.0,-999.0,88,-99.99,,,0.02,weatherlink.com 1.10,2013-01-11 22:25:00,
2013-01-11 17:40:00,42.3,39.0,29.94,South,179,3.0,-999.0,88,-99.99,,,0.02,weatherlink.com 1.10,2013-01-11 22:40:00,
2013-01-11 17:55:00,42.4,39.0,29.94,South,179,2.0,-999.0,89,-99.99,,,0.02,weatherlink.com 1.10,2013-01-11 22:55:00,
2013-01-11 18:09:00,42.5,40.0,29.94,SSE,165,1.0,-999.0,89,-99.99,,,0.02,weatherlink.com 1.10,2013-01-11 23:09:00,
2013-01-11 18:24:00,43.3,40.0,29.94,South,178,4.0,-999.0,89,-99.99,,,0.02,weatherlink.com 1.10,2013-01-11 23:24:00,
2013-01-11 18:39:00,43.3,40.0,29.94,SSW,196,5.0,-999.0,88,-99.99,,,0.02,weatherlink.com 1.10,2013-01-11 23:39:00,
2013-01-11 18:54:00,43.4,40.0,29.94,SSW,198,5.0,-999.0,88,-99.99,,,0.02,weatherlink.com 1.10,2013-01-11 23:54:00,
2013-01-11 19:09:00,43.4,40.0,29.95,South,169,2.0,-999.0,88,-99.99,,,0.02,weatherlink.com 1.10,2013-01-12 00:09:00,
2013-01-11 19:24:00,43.3,40.0,29.95,South,175,4.0,-999.0,88,-99.99,,,0.02,weatherlink.com 1.10,2013-01-12 00:24:00,
2013-01-11 19:39:00,43.1,40.0,29.95,SW,227,2.0,-999.0,89,-99.99,,,0.02,weatherlink.com 1.10,2013-01-12 00:39:00,
2013-01-11 19:54:00,42.9,40.0,29.95,SSW,200,3.0,-999.0,89,-99.99,,,0.02,weatherlink.com 1.10,2013-01-12 00:54:00,
2013-01-11 20:09:00,42.9,40.0,29.96,SW,229,3.0,-999.0,90,-99.99,,,0.02,weatherlink.com 1.10,2013-01-12 01:09:00,
2013-01-11 20:24:00,43.0,41.0,29.96,SSE,165,4.0,-999.0,91,-99.99,,,0.02,weatherlink.com 1.10,2013-01-12 01:24:00,
2013-01-11 20:39:00,42.9,41.0,29.97,South,186,1.0,-999.0,91,-99.99,,,0.02,weatherlink.com 1.10,2013-01-12 01:39:00,
2013-01-11 20:54:00,43.0,41.0,29.97,South,191,1.0,-999.0,91,-99.99,,,0.02,weatherlink.com 1.10,2013-01-12 01:54:00,
2013-01-11 21:09:00,42.9,41.0,29.96,South,176,6.0,-999.0,91,-99.99,,,0.02,weatherlink.com 1.10,2013-01-12 02:09:00,
2013-01-11 21:24:00,42.9,41.0,29.96,SSW,211,0.0,-999.0,91,-99.99,,,0.02,weatherlink.com 1.10,2013-01-12 02:24:00,
2013-01-11 21:39:00,43.1,41.0,29.97,South,183,1.0,-999.0,91,-99.99,,,0.02,weatherlink.com 1.10,2013-01-12 02:39:00,
2013-01-11 21:54:00,43.3,41.0,29.96,South,190,5.0,-999.0,91,-99.99,,,0.02,weatherlink.com 1.10,2013-01-12 02:54:00,
2013-01-11 22:09:00,43.5,41.0,29.96,SSW,195,3.0,-999.0,91,-99.99,,,0.02,weatherlink.com 1.10,2013-01-12 03:09:00,
2013-01-11 22:24:00,43.5,41.0,29.97,SSW,211,1.0,-999.0,91,-99.99,,,0.02,weatherlink.com 1.10,2013-01-12 03:24:00,
2013-01-11 22:39:00,43.4,41.0,29.97,South,180,4.0,-999.0,91,-99.99,,,0.02,weatherlink.com 1.10,2013-01-12 03:39:00,
2013-01-11 22:54:00,43.5,41.0,29.97,SSE,160,3.0,-999.0,91,-99.99,,,0.02,weatherlink.com 1.10,2013-01-12 03:54:00,
2013-01-11 23:10:00,43.7,41.0,29.97,SSW,196,3.0,-999.0,91,-99.99,,,0.02,weatherlink.com 1.10,2013-01-12 04:10:00,
2013-01-11 23:25:00,43.6,41.0,29.96,South,184,5.0,-999.0,91,-99.99,,,0.02,weatherlink.com 1.10,2013-01-12 04:25:00,
2013-01-11 23:39:00,43.1,41.0,29.97,South,175,6.0,-999.0,91,-99.99,,,0.02,weatherlink.com 1.10,2013-01-12 04:39:00,
2013-01-11 23:54:00,43.3,41.0,29.97,SSE,165,1.0,-999.0,92,-99.99,,,0.02,weatherlink.com 1.10,2013-01-12 04:54:00,